Grand Island, NE

8:56 PM CDT on July 24, 2017 (GMT -0500)
Central Nebraska Regional

Weather History for KGRI - July, 2013

Change the Weather History Date:

Friday, July 19, 2013

  Actual Average Record
Temperature  
Mean Temperature 83 °F 76 °F  
Max Temperature 92 °F 88 °F 114 °F (1934)
Min Temperature 73 °F 65 °F 52 °F (1902)
Degree Days  
Heating Degree Days 0 0  
Month to date heating degree days 0 0  
Since 1 June heating degree days 21 24  
Since 1 July heating degree days 0 0  
Cooling Degree Days 18 12  
Month to date cooling degree days 269 217  
Year to date cooling degree days 623 495  
Since 1 June cooling degree days 528 430  
Growing Degree Days 32 (Base 50)    
Moisture  
Dew Point 66 °F    
Average Humidity 66    
Maximum Humidity 88    
Minimum Humidity 43    
Precipitation  
Precipitation 0.12 in 0.10 in 1.14 in (1906)
Month to date precipitation 0.38 2.14  
Year to date precipitation 15.38 16.39  
Snow  
Snow 0.00 in 0.00 in - ()
Month to date snowfall 0.0 0.0  
Since 1 June snowfall 0.0 0.0  
Since 1 July snowfall 0.0 0.0  
Snow Depth 0.00 in    
Sea Level Pressure  
Sea Level Pressure 29.93 in    
Wind  
Wind Speed 8 mph (SE)    
Max Wind Speed 25 mph    
Max Gust Speed 32 mph    
Visibility 10 miles    
Events Rain , Thunderstorm    
T = Trace of Precipitation, MM = Missing Value Source: NWS Daily Summary

Daily Weather History Graph

Daily Weather History Graph

Search for Another Location

Airport or City:

Trip Planner

Search our weather history database for the weather conditions in past years. The results will help you decide how hot, cold, wet, or windy it might be!

Date:

Astronomy

Jul. 19, 2013 Rise Set
Actual Time 6:17 AM CDT 9:01 PM CDT
Civil Twilight 5:45 AM CDT 9:33 PM CDT
Nautical Twilight 5:05 AM CDT 10:13 PM CDT
Astronomical Twilight 4:19 AM CDT 10:58 PM CDT
Moon 6:04 PM CDT (7/19) 3:00 AM CDT (7/19)
Length of Visible Light 15h 47m
Length of Day
14h 43m
Waxing Gibbous, 87% of the Moon is Illuminated
Jul 19
Waxing Gibbous
Jul 22
Full
Jul 29
Last Quarter
Aug 6
New
Aug 14
First Quarter

Hourly Weather History & Observations

Time (CDT) Temp. Heat Index Dew Point Humidity Pressure Visibility Wind Dir Wind Speed Gust Speed Precip Events Conditions
12:53 AM 82.0 °F 83.0 °F 62.1 °F 51% 29.91 in 10.0 mi South 16.1 mph 26.5 mph N/A   Clear
1:53 AM 81.0 °F 81.9 °F 62.1 °F 52% 29.91 in 10.0 mi SSW 16.1 mph - N/A   Clear
2:53 AM 79.0 °F - 62.1 °F 56% 29.91 in 10.0 mi SSW 15.0 mph - N/A   Clear
3:53 AM 77.0 °F - 63.0 °F 62% 29.90 in 10.0 mi SSW 11.5 mph - N/A   Clear
4:53 AM 75.9 °F - 63.0 °F 64% 29.89 in 10.0 mi SW 12.7 mph - N/A   Clear
5:53 AM 75.0 °F - 63.0 °F 66% 29.88 in 10.0 mi SW 11.5 mph - N/A   Clear
6:53 AM 75.0 °F - 63.0 °F 66% 29.88 in 10.0 mi SW 10.4 mph - N/A   Partly Cloudy
7:53 AM 75.9 °F - 64.0 °F 67% 29.91 in 10.0 mi West 6.9 mph - N/A   Mostly Cloudy
8:53 AM 75.9 °F - 64.0 °F 67% 29.94 in 10.0 mi Calm Calm - N/A   Mostly Cloudy
9:53 AM 80.1 °F 81.9 °F 64.9 °F 60% 29.94 in 10.0 mi SW 4.6 mph - N/A   Clear
10:39 AM 84.2 °F 86.6 °F 66.2 °F 55% 29.99 in 9.0 mi Calm Calm - N/A   Partly Cloudy
10:53 AM 84.0 °F 86.3 °F 66.0 °F 55% 29.94 in 10.0 mi Calm Calm - N/A   Clear
11:53 AM 88.0 °F 92.1 °F 69.1 °F 53% 29.94 in 10.0 mi ENE 13.8 mph 18.4 mph N/A   Clear
12:53 PM 89.1 °F 91.3 °F 66.0 °F 46% 29.94 in 10.0 mi ENE 17.3 mph 23.0 mph N/A   Scattered Clouds
1:53 PM 78.1 °F - 66.9 °F 68% 29.95 in 10.0 mi NE 24.2 mph 32.2 mph 0.00 in Rain Rain
1:56 PM 75.2 °F - 66.2 °F 73% 30.00 in 10.0 mi NE 20.7 mph 32.2 mph 0.00 in Rain Rain
1:58 PM 75.2 °F - 66.2 °F 73% 30.00 in 10.0 mi East 12.7 mph 32.2 mph 0.04 in   Overcast
2:04 PM 78.8 °F - 69.8 °F 74% 30.00 in 10.0 mi ESE 12.7 mph 27.6 mph 0.12 in Rain , Thunderstorm Light Thunderstorms and Rain
2:53 PM 81.0 °F 84.1 °F 69.1 °F 67% 29.96 in 10.0 mi ESE 4.6 mph - 0.12 in Thunderstorm Mostly Cloudy
2:59 PM 80.6 °F 82.7 °F 66.2 °F 61% 30.01 in 10.0 mi SE 6.9 mph - N/A Thunderstorm Scattered Clouds
3:20 PM 82.4 °F 84.6 °F 66.2 °F 58% 30.01 in 10.0 mi ESE 4.6 mph - N/A   Clear
3:53 PM 82.0 °F 85.9 °F 70.0 °F 67% 29.95 in 10.0 mi ESE 3.5 mph - N/A   Clear
4:53 PM 84.0 °F 88.4 °F 70.0 °F 63% 29.93 in 10.0 mi SE 6.9 mph - N/A   Clear
5:53 PM 88.0 °F 89.6 °F 64.9 °F 46% 29.92 in 10.0 mi ESE 6.9 mph - N/A   Clear
6:53 PM 87.1 °F 87.5 °F 62.1 °F 43% 29.89 in 10.0 mi East 6.9 mph - N/A   Clear
7:53 PM 86.0 °F 89.4 °F 68.0 °F 55% 29.90 in 10.0 mi Calm Calm - N/A   Clear
8:53 PM 80.1 °F 84.2 °F 73.0 °F 79% 29.91 in 10.0 mi Calm Calm - N/A   Clear
9:53 PM 77.0 °F - 73.9 °F 90% 29.92 in 10.0 mi Calm Calm - N/A   Clear
10:53 PM 75.9 °F - 68.0 °F 76% 29.94 in 10.0 mi ESE 4.6 mph - N/A   Clear
11:53 PM 73.9 °F - 68.0 °F 82% 29.94 in 10.0 mi East 4.6 mph - N/A   Clear